Flag for U.S.A. Weather past 2 weeks in Clarksville, Tennessee, U.S.A.

Now
80 °F

Clear.


Feels Like: 84 °F
Forecast: 72 / 91 °F
Wind: 5 mph from Southwest

Location: Outlaw Field

Current Time: Jul 22, 2014 at 11:05:48 PM

Latest Report: Jul 22, 2014 at 9:52 PM


Visibility: 10 mi

Pressure: 30.05 "Hg

Humidity: 76%

Dew point: 72 °F

Location of ClarksvilleLocation

Historic Weather in Clarksville — Graph

°F

Clarksville temperature yesterday

Maximum temperature yesterday: 91 °F (at 2:52 PM)
Minimum temperature yesterday: 63 °F (at 4:52 AM)
Average temperature yesterday: 78 °F

Past Weeks' High & Low Weather Summary

 TemperatureHumidityPressure
High93 °F (Jul 12, 3:52 PM)97% (Jul 10, 5:52 AM)30.17 "Hg (Jul 10, 5:52 AM)
Low54 °F (Jul 16, 4:52 AM)31% (Jul 17, 2:52 PM)29.84 "Hg (Jul 8, 12:52 AM)
Average75 °F68%30.02 "Hg
* Reported Jul 7 9:52 PM — Jul 22 9:52 PM, Clarksville, Weather by CustomWeather, © 2014

Note: Actual official high and low records may vary slightly from our data, if they occured in-between our weather recording intervals... More about our weather records

Advertising

Clarksville weather history for previous 24 hours

 ConditionsComfort  
Time TempWeatherWind HumidityBarometerVisibility
9:52 PM
Jul 22
80 °FClear.5 mph76%30.05 "Hg10 mi
8:52 PM83 °FClear.5 mph68%30.03 "Hg10 mi
7:52 PM86 °FSunny.6 mph59%30.01 "Hg10 mi
6:52 PM90 °FSunny.8 mph50%30.01 "Hg10 mi
11:52 AM87 °FPassing clouds.6 mph53%30.07 "Hg10 mi
10:52 AM86 °FSunny.5 mph61%30.07 "Hg10 mi
9:52 AM84 °FSunny.3 mph65%30.07 "Hg10 mi
8:52 AM80 °FSunny.3 mph71%30.08 "Hg10 mi
7:52 AM76 °FSunny.No wind77%30.09 "Hg8 mi
6:52 AM71 °FSunny.No wind84%30.08 "Hg6 mi
5:52 AM67 °FFog.No wind90%30.07 "Hg5 mi
4:52 AM68 °FFog.No wind93%30.06 "Hg6 mi
3:52 AM69 °FClear.No wind87%30.04 "Hg8 mi
2:52 AM69 °FClear.3 mph87%30.04 "Hg9 mi
1:52 AM70 °FClear.No wind87%30.04 "Hg10 mi
12:52 AM71 °FClear.No wind84%30.04 "Hg10 mi
11:52 PM
Jul 21
72 °FClear.No wind78%30.04 "Hg10 mi
Weather by CustomWeather, © 2014

See weather overviewHow to use our weather pages